IW0DNR Weather Reports


time (UTC)temp
F
wind
direction
speed
knots
gust
knots
rain 1hr
in
rain 24hr
in
rain mn
in
humidity
%
barometer
mb
20260507234537 68 60 0.9 2.6 0.00 0.00 0.00 61 1008.5
20260507233024 68 22 0.9 3.5 0.00 0.00 0.00 61 1008.7
20260507231523 68 49 0.9 3.5 0.00 0.00 0.00 61 1008.9
20260507230021 68 29 0.9 2.6 0.00 0.00 0.00 62 1008.9
20260507224525 68 336 0.0 2.6 0.00 0.00 0.00 62 1009.2
20260507223019 68 49 1.7 3.5 0.00 0.00 0.00 62 1009.3
20260507221517 68 56 0.9 3.5 0.00 0.00 0.00 62 1009.3
20260507220015 68 13 0.0 2.6 0.00 0.00 0.00 62 1009.3
20260507214522 68 15 0.0 1.7 0.00 0.00 0.00 63 1009.2
20260507213017 68 15 0.0 3.5 0.00 0.00 0.00 63 1009.2
20260507211514 68 30 1.7 3.5 0.00 0.00 0.00 63 1009.1
20260507210013 68 28 0.9 3.5 0.00 0.00 0.00 64 1009.2
20260507204513 68 61 0.9 3.5 0.00 0.01 0.00 66 1009.5
20260507203014 67 25 1.7 7.0 0.00 0.01 0.00 69 1009.4
20260507201511 66 17 1.7 3.5 0.00 0.01 0.00 71 1009.7
20260507200011 67 126 0.0 0.9 0.00 0.01 0.00 71 1009.7
20260507194510 67 126 1.7 4.3 0.00 0.01 0.00 69 1009.8
20260507193008 67 153 0.0 1.7 0.00 0.01 0.00 68 1009.6
20260507191509 67 198 0.0 2.6 0.00 0.01 0.00 70 1009.5
20260507190007 67 198 0.0 0.0 0.00 0.01 0.00 71 1009.4
20260507184507 67 198 0.0 0.9 0.00 0.01 0.00 71 1009.4
20260507183006 67 198 0.0 0.0 0.00 0.01 0.00 69 1009.3
20260507181506 67 198 0.0 0.9 0.00 0.01 0.00 68 1009.3
20260507180006 68 198 0.0 0.9 0.00 0.01 0.00 67 1009.3
20260507174504 68 198 0.0 0.9 0.00 0.01 0.00 66 1009.4
20260507173005 69 198 0.0 2.6 0.00 0.01 0.00 65 1009.4
20260507171503 70 209 1.7 3.5 0.00 0.01 0.00 64 1009.3
20260507170003 71 210 0.0 2.6 0.00 0.01 0.00 63 1009.3
20260507164502 72 15 0.0 2.6 0.00 0.01 0.00 64 1009.4
20260507163001 73 15 0.0 2.6 0.00 0.01 0.00 63 1009.3
20260507161601 73 46 0.0 2.6 0.00 0.01 0.00 61 1009.4
20260507160059 74 311 0.9 1.7 0.00 0.01 0.00 60 1009.7
20260507154555 73 313 0.0 2.6 0.00 0.01 0.00 60 1009.9
20260507153054 73 317 0.9 2.6 0.00 0.01 0.00 58 1009.9
20260507151552 72 240 0.0 3.5 0.00 0.01 0.00 58 1010.0
20260507150052 72 247 0.9 4.3 0.00 0.01 0.00 57 1010.1
20260507144613 73 180 0.9 3.5 0.00 0.01 0.00 58 1010.2
20260507143052 71 242 1.7 4.3 0.00 0.01 0.00 59 1010.4
20260507141609 71 225 1.7 5.2 0.00 0.01 0.00 59 1010.4
20260507140048 71 232 2.6 7.0 0.00 0.01 0.00 60 1010.7
20260507134548 71 251 2.6 6.1 0.00 0.01 0.00 61 1010.8
20260507133042 71 175 2.6 6.1 0.00 0.01 0.00 63 1011.2
20260507131543 71 209 1.7 6.1 0.00 0.01 0.00 64 1011.1
20260507130040 71 162 1.7 7.0 0.00 0.01 0.00 62 1011.1
20260507124539 70 212 3.5 6.1 0.00 0.01 0.00 62 1011.3
20260507123037 71 216 2.6 6.1 0.00 0.01 0.00 61 1011.5
20260507121536 71 244 3.5 6.1 0.00 0.01 0.00 61 1011.6
20260507120034 71 221 1.7 7.0 0.00 0.01 0.00 60 1011.8
20260507114535 73 246 3.5 6.1 0.00 0.01 0.00 57 1011.8
20260507113029 71 265 3.5 7.8 0.00 0.01 0.00 60 1011.9
20260507111628 70 188 2.6 6.1 0.00 0.01 0.00 63 1012.0
20260507110027 69 219 2.6 6.1 0.00 0.01 0.00 63 1012.2
20260507104527 70 254 1.7 7.0 0.00 0.01 0.00 63 1012.4
20260507103025 68 219 1.7 7.8 0.00 0.01 0.00 65 1012.7
20260507101527 68 205 4.3 8.7 0.00 0.01 0.00 66 1012.9
20260507100033 68 252 2.6 10.4 0.00 0.01 0.00 67 1012.8
20260507094535 71 200 3.5 8.7 0.00 0.01 0.00 61 1012.6
20260507093027 71 137 1.7 4.3 0.00 0.01 0.00 58 1012.4
20260507091526 70 288 0.9 3.5 0.00 0.01 0.00 61 1012.3
20260507090019 69 109 0.0 3.5 0.00 0.01 0.00 63 1012.2
20260507084522 69 210 1.7 3.5 0.00 0.01 0.00 63 1012.6
20260507083012 69 305 0.0 2.6 0.00 0.01 0.00 63 1012.7
20260507081518 67 138 0.9 3.5 0.00 0.01 0.00 67 1012.6
20260507080007 66 248 0.9 3.5 0.00 0.01 0.00 68 1012.6
20260507074507 66 313 0.9 5.2 0.00 0.01 0.00 68 1012.9
20260507073007 66 205 0.0 4.3 0.00 0.01 0.00 67 1013.0
20260507071502 66 278 0.0 3.5 0.00 0.01 0.00 69 1012.8
20260507064555 63 22 1.7 5.2 0.00 0.01 0.00 73 1012.6
20260507063054 63 10 2.6 5.2 0.00 0.01 0.00 75 1012.3
20260507061549 62 26 0.9 3.5 0.00 0.01 0.00 77 1012.5
20260507060056 61 351 1.7 3.5 0.00 0.01 0.00 78 1012.6
20260507054549 60 351 0.9 4.3 0.00 0.01 0.00 79 1012.7
20260507053051 59 34 0.9 3.5 0.00 0.01 0.00 80 1012.7
20260507051542 59 15 0.0 2.6 0.00 0.01 0.00 80 1012.7
20260507050042 59 360 0.0 2.6 0.00 0.01 0.00 80 1012.6
20260507044554 59 360 0.9 3.5 0.00 0.01 0.00 81 1012.5
20260507043040 59 31 0.9 5.2 0.00 0.01 0.00 81 1012.3
20260507041539 59 12 1.7 5.2 0.00 0.01 0.00 82 1012.3
20260507040039 59 355 0.9 5.2 0.00 0.01 0.00 81 1012.1
20260507034541 59 26 0.9 5.2 0.00 0.01 0.00 81 1012.1
20260507033037 59 348 1.7 4.3 0.00 0.01 0.00 81 1012.1
20260507031537 59 24 1.7 4.3 0.00 0.01 0.00 80 1012.0
20260507030035 59 5 0.0 2.6 0.00 0.01 0.00 81 1012.0
20260507024540 59 52 0.0 1.7 0.00 0.01 0.00 80 1012.1
20260507023033 59 33 0.9 2.6 0.00 0.01 0.00 80 1012.3
20260507021532 59 63 0.0 2.6 0.00 0.01 0.00 80 1012.3
20260507020042 59 72 0.0 1.7 0.00 0.01 0.00 80 1012.4
20260507014534 59 70 0.0 1.7 0.00 0.01 0.00 82 1012.4
20260507013031 59 71 0.0 1.7 0.00 0.01 0.00 84 1012.5
20260507011528 59 71 0.0 0.0 0.00 0.01 0.00 85 1012.5
20260507010029 59 71 0.0 1.7 0.00 0.01 0.00 86 1012.4
20260507004531 59 360 0.0 0.9 0.00 0.01 0.00 86 1012.5
20260507003029 59 72 0.0 2.6 0.00 0.01 0.00 86 1012.4
20260507001534 59 360 0.9 2.6 0.00 0.01 0.00 86 1012.4
20260507000024 59 360 0.0 1.7 0.00 0.01 0.00 86 1012.5